Year,Month,Day,Hour,Minute,Value (Times are PST for insolation in W/m^2)
2006,03,31,00,00,0.00
2006,03,31,00,01,0.00
2006,03,31,00,02,0.00
2006,03,31,00,03,0.00
2006,03,31,00,04,0.00
2006,03,31,00,05,0.00
2006,03,31,00,06,0.00
2006,03,31,00,07,0.00
2006,03,31,00,08,0.00
2006,03,31,00,09,0.00
2006,03,31,00,10,0.00
2006,03,31,00,11,0.00
2006,03,31,00,12,0.00
2006,03,31,00,13,0.00
2006,03,31,00,14,0.00
2006,03,31,00,15,0.00
2006,03,31,00,16,0.00
2006,03,31,00,17,0.00
2006,03,31,00,18,0.00
2006,03,31,00,19,0.00
2006,03,31,00,20,0.00
2006,03,31,00,21,0.00
2006,03,31,00,22,0.00
2006,03,31,00,23,0.00
2006,03,31,00,24,0.00
2006,03,31,00,25,0.00
2006,03,31,00,26,0.00
2006,03,31,00,27,0.00
2006,03,31,00,28,0.00
2006,03,31,00,29,0.00
2006,03,31,00,30,0.00
2006,03,31,00,31,0.00
2006,03,31,00,32,0.00
2006,03,31,00,33,0.00
2006,03,31,00,34,0.00
2006,03,31,00,35,0.00
2006,03,31,00,36,0.00
2006,03,31,00,37,0.00
2006,03,31,00,38,0.00
2006,03,31,00,39,0.00
2006,03,31,00,40,0.00
2006,03,31,00,41,0.00
2006,03,31,00,42,0.00
2006,03,31,00,43,0.00
2006,03,31,00,44,0.00
2006,03,31,00,45,0.00
2006,03,31,00,46,0.00
2006,03,31,00,47,0.00
2006,03,31,00,48,0.00
2006,03,31,00,49,0.00
2006,03,31,00,50,0.00
2006,03,31,00,51,0.00
2006,03,31,00,52,0.00
2006,03,31,00,53,0.00
2006,03,31,00,54,0.00
2006,03,31,00,55,0.00
2006,03,31,00,56,0.00
2006,03,31,00,57,0.00
2006,03,31,00,58,0.00
2006,03,31,00,59,0.00
2006,03,31,01,00,0.00
2006,03,31,01,01,0.00
2006,03,31,01,02,0.00
2006,03,31,01,03,0.00
2006,03,31,01,04,0.00
2006,03,31,01,05,0.00
2006,03,31,01,06,0.00
2006,03,31,01,07,0.00
2006,03,31,01,08,0.00
2006,03,31,01,09,0.00
2006,03,31,01,10,0.00
2006,03,31,01,11,0.00
2006,03,31,01,12,0.00
2006,03,31,01,13,0.00
2006,03,31,01,14,0.00
2006,03,31,01,15,0.00
2006,03,31,01,16,0.00
2006,03,31,01,17,0.00
2006,03,31,01,18,0.00
2006,03,31,01,19,0.00
2006,03,31,01,20,0.00
2006,03,31,01,21,0.00
2006,03,31,01,22,0.00
2006,03,31,01,23,0.00
2006,03,31,01,24,0.00
2006,03,31,01,25,0.00
2006,03,31,01,26,0.00
2006,03,31,01,27,0.00
2006,03,31,01,28,0.00
2006,03,31,01,29,0.00
2006,03,31,01,30,0.00
2006,03,31,01,31,0.00
2006,03,31,01,32,0.00
2006,03,31,01,33,0.00
2006,03,31,01,34,0.00
2006,03,31,01,35,0.00
2006,03,31,01,36,0.00
2006,03,31,01,37,0.00
2006,03,31,01,38,0.00
2006,03,31,01,39,0.00
2006,03,31,01,40,0.00
2006,03,31,01,41,0.00
2006,03,31,01,42,0.00
2006,03,31,01,43,0.00
2006,03,31,01,44,0.00
2006,03,31,01,45,0.00
2006,03,31,01,46,0.00
2006,03,31,01,47,0.00
2006,03,31,01,48,0.00
2006,03,31,01,49,0.00
2006,03,31,01,50,0.00
2006,03,31,01,51,0.00
2006,03,31,01,52,0.00
2006,03,31,01,53,0.00
2006,03,31,01,54,0.00
2006,03,31,01,55,0.00
2006,03,31,01,56,0.00
2006,03,31,01,57,0.00
2006,03,31,01,58,0.00
2006,03,31,01,59,0.00
2006,03,31,02,00,0.00
2006,03,31,02,01,0.00
2006,03,31,02,02,0.00
2006,03,31,02,03,0.00
2006,03,31,02,04,0.00
2006,03,31,02,05,0.00
2006,03,31,02,06,0.00
2006,03,31,02,07,0.00
2006,03,31,02,08,0.00
2006,03,31,02,09,0.00
2006,03,31,02,10,0.00
2006,03,31,02,11,0.00
2006,03,31,02,12,0.00
2006,03,31,02,13,0.00
2006,03,31,02,14,0.00
2006,03,31,02,15,0.00
2006,03,31,02,16,0.00
2006,03,31,02,17,0.00
2006,03,31,02,18,0.00
2006,03,31,02,19,0.00
2006,03,31,02,20,0.00
2006,03,31,02,21,0.00
2006,03,31,02,22,0.00
2006,03,31,02,23,0.00
2006,03,31,02,24,0.00
2006,03,31,02,25,0.00
2006,03,31,02,26,0.00
2006,03,31,02,27,0.00
2006,03,31,02,28,0.00
2006,03,31,02,29,0.00
2006,03,31,02,30,0.00
2006,03,31,02,31,0.00
2006,03,31,02,32,0.00
2006,03,31,02,33,0.00
2006,03,31,02,34,0.00
2006,03,31,02,35,0.00
2006,03,31,02,36,0.00
2006,03,31,02,37,0.00
2006,03,31,02,38,0.00
2006,03,31,02,39,0.00
2006,03,31,02,40,0.00
2006,03,31,02,41,0.00
2006,03,31,02,42,0.00
2006,03,31,02,43,0.00
2006,03,31,02,44,0.00
2006,03,31,02,45,0.00
2006,03,31,02,46,0.00
2006,03,31,02,47,0.00
2006,03,31,02,48,0.00
2006,03,31,02,49,0.00
2006,03,31,02,50,0.00
2006,03,31,02,51,0.00
2006,03,31,02,52,0.00
2006,03,31,02,53,0.00
2006,03,31,02,54,0.00
2006,03,31,02,55,0.00
2006,03,31,02,56,0.00
2006,03,31,02,57,0.00
2006,03,31,02,58,0.00
2006,03,31,02,59,0.00
2006,03,31,03,00,0.00
2006,03,31,03,01,0.00
2006,03,31,03,02,0.00
2006,03,31,03,03,0.00
2006,03,31,03,04,0.00
2006,03,31,03,05,0.00
2006,03,31,03,06,0.00
2006,03,31,03,07,0.00
2006,03,31,03,08,0.00
2006,03,31,03,09,0.00
2006,03,31,03,10,0.00
2006,03,31,03,11,0.00
2006,03,31,03,12,0.00
2006,03,31,03,13,0.00
2006,03,31,03,14,0.00
2006,03,31,03,15,0.00
2006,03,31,03,16,0.00
2006,03,31,03,17,0.00
2006,03,31,03,18,0.00
2006,03,31,03,19,0.00
2006,03,31,03,20,0.00
2006,03,31,03,21,0.00
2006,03,31,03,22,0.00
2006,03,31,03,23,0.00
2006,03,31,03,24,0.00
2006,03,31,03,25,0.00
2006,03,31,03,26,0.00
2006,03,31,03,27,0.00
2006,03,31,03,28,0.00
2006,03,31,03,29,0.00
2006,03,31,03,30,0.00
2006,03,31,03,31,0.00
2006,03,31,03,32,0.00
2006,03,31,03,33,0.00
2006,03,31,03,34,0.00
2006,03,31,03,35,0.00
2006,03,31,03,36,0.00
2006,03,31,03,37,0.00
2006,03,31,03,38,0.00
2006,03,31,03,39,0.00
2006,03,31,03,40,0.00
2006,03,31,03,41,0.00
2006,03,31,03,42,0.00
2006,03,31,03,43,0.00
2006,03,31,03,44,0.00
2006,03,31,03,45,0.00
2006,03,31,03,46,0.00
2006,03,31,03,47,0.00
2006,03,31,03,48,0.00
2006,03,31,03,49,0.00
2006,03,31,03,50,0.00
2006,03,31,03,51,0.00
2006,03,31,03,52,0.00
2006,03,31,03,53,0.00
2006,03,31,03,54,0.00
2006,03,31,03,55,0.00
2006,03,31,03,56,0.00
2006,03,31,03,57,0.00
2006,03,31,03,58,0.00
2006,03,31,03,59,0.00
2006,03,31,04,00,0.00
2006,03,31,04,01,0.00
2006,03,31,04,02,0.00
2006,03,31,04,03,0.00
2006,03,31,04,04,0.00
2006,03,31,04,05,0.00
2006,03,31,04,06,0.00
2006,03,31,04,07,0.00
2006,03,31,04,08,0.00
2006,03,31,04,09,0.00
2006,03,31,04,10,0.00
2006,03,31,04,11,0.00
2006,03,31,04,12,0.00
2006,03,31,04,13,0.00
2006,03,31,04,14,0.00
2006,03,31,04,15,0.00
2006,03,31,04,16,0.00
2006,03,31,04,17,0.00
2006,03,31,04,18,0.00
2006,03,31,04,19,0.00
2006,03,31,04,20,0.00
2006,03,31,04,21,0.00
2006,03,31,04,22,0.00
2006,03,31,04,23,0.00
2006,03,31,04,24,0.00
2006,03,31,04,25,0.00
2006,03,31,04,26,0.00
2006,03,31,04,27,0.00
2006,03,31,04,28,0.00
2006,03,31,04,29,0.00
2006,03,31,04,30,0.00
2006,03,31,04,31,0.00
2006,03,31,04,32,0.00
2006,03,31,04,33,0.00
2006,03,31,04,34,0.00
2006,03,31,04,35,0.00
2006,03,31,04,36,0.00
2006,03,31,04,37,0.00
2006,03,31,04,38,0.00
2006,03,31,04,39,0.00
2006,03,31,04,40,0.00
2006,03,31,04,41,0.00
2006,03,31,04,42,0.00
2006,03,31,04,43,0.00
2006,03,31,04,44,0.00
2006,03,31,04,45,0.00
2006,03,31,04,46,0.00
2006,03,31,04,47,0.00
2006,03,31,04,48,0.00
2006,03,31,04,49,0.00
2006,03,31,04,50,0.00
2006,03,31,04,51,0.00
2006,03,31,04,52,0.00
2006,03,31,04,53,0.00
2006,03,31,04,54,0.00
2006,03,31,04,55,0.00
2006,03,31,04,56,0.00
2006,03,31,04,57,0.00
2006,03,31,04,58,0.00
2006,03,31,04,59,0.00
2006,03,31,05,00,0.00
2006,03,31,05,01,0.00
2006,03,31,05,02,0.00
2006,03,31,05,03,0.00
2006,03,31,05,04,0.00
2006,03,31,05,05,0.00
2006,03,31,05,06,0.00
2006,03,31,05,07,0.00
2006,03,31,05,08,0.00
2006,03,31,05,09,0.00
2006,03,31,05,10,0.00
2006,03,31,05,11,0.00
2006,03,31,05,12,0.00
2006,03,31,05,13,0.00
2006,03,31,05,14,0.00
2006,03,31,05,15,0.00
2006,03,31,05,16,0.00
2006,03,31,05,17,0.00
2006,03,31,05,18,0.00
2006,03,31,05,19,0.00
2006,03,31,05,20,0.00
2006,03,31,05,21,0.00
2006,03,31,05,22,0.00
2006,03,31,05,23,0.00
2006,03,31,05,24,0.00
2006,03,31,05,25,0.00
2006,03,31,05,26,0.00
2006,03,31,05,27,0.00
2006,03,31,05,28,0.00
2006,03,31,05,29,0.00
2006,03,31,05,30,0.00
2006,03,31,05,31,0.00
2006,03,31,05,32,0.00
2006,03,31,05,33,0.00
2006,03,31,05,34,0.00
2006,03,31,05,35,0.00
2006,03,31,05,36,0.00
2006,03,31,05,37,0.00
2006,03,31,05,38,0.00
2006,03,31,05,39,0.00
2006,03,31,05,40,0.00
2006,03,31,05,41,0.00
2006,03,31,05,42,0.00
2006,03,31,05,43,0.00
2006,03,31,05,44,0.00
2006,03,31,05,45,0.00
2006,03,31,05,46,0.00
2006,03,31,05,47,0.00
2006,03,31,05,48,0.00
2006,03,31,05,49,0.00
2006,03,31,05,50,0.00
2006,03,31,05,51,0.00
2006,03,31,05,52,0.00
2006,03,31,05,53,0.00
2006,03,31,05,54,0.00
2006,03,31,05,55,0.00
2006,03,31,05,56,0.00
2006,03,31,05,57,0.00
2006,03,31,05,58,0.00
2006,03,31,05,59,0.00
2006,03,31,06,00,0.00
2006,03,31,06,01,0.00
2006,03,31,06,02,0.00
2006,03,31,06,03,0.00
2006,03,31,06,04,0.00
2006,03,31,06,05,0.00
2006,03,31,06,06,0.00
2006,03,31,06,07,1.00
2006,03,31,06,08,5.00
2006,03,31,06,09,5.00
2006,03,31,06,10,5.00
2006,03,31,06,11,6.60
2006,03,31,06,12,7.00
2006,03,31,06,13,7.40
2006,03,31,06,14,9.00
2006,03,31,06,15,9.00
2006,03,31,06,16,9.00
2006,03,31,06,17,9.00
2006,03,31,06,18,9.00
2006,03,31,06,19,9.00
2006,03,31,06,20,9.00
2006,03,31,06,21,9.00
2006,03,31,06,22,9.00
2006,03,31,06,23,9.00
2006,03,31,06,24,7.10
2006,03,31,06,25,7.00
2006,03,31,06,26,7.00
2006,03,31,06,27,7.00
2006,03,31,06,28,7.00
2006,03,31,06,29,7.00
2006,03,31,06,30,7.30
2006,03,31,06,31,9.00
2006,03,31,06,32,9.00
2006,03,31,06,33,9.00
2006,03,31,06,34,9.00
2006,03,31,06,35,9.00
2006,03,31,06,36,11.00
2006,03,31,06,37,11.00
2006,03,31,06,38,11.00
2006,03,31,06,39,11.00
2006,03,31,06,40,11.00
2006,03,31,06,41,11.90
2006,03,31,06,42,12.00
2006,03,31,06,43,12.00
2006,03,31,06,44,12.00
2006,03,31,06,45,12.00
2006,03,31,06,46,12.00
2006,03,31,06,47,12.00
2006,03,31,06,48,12.00
2006,03,31,06,49,12.00
2006,03,31,06,50,11.50
2006,03,31,06,51,11.00
2006,03,31,06,52,11.80
2006,03,31,06,53,12.20
2006,03,31,06,54,14.50
2006,03,31,06,55,16.00
2006,03,31,06,56,16.00
2006,03,31,06,57,16.00
2006,03,31,06,58,17.70
2006,03,31,06,59,18.10
2006,03,31,07,00,19.00
2006,03,31,07,01,19.00
2006,03,31,07,02,19.00
2006,03,31,07,03,19.00
2006,03,31,07,04,18.20
2006,03,31,07,05,18.10
2006,03,31,07,06,19.50
2006,03,31,07,07,21.80
2006,03,31,07,08,24.20
2006,03,31,07,09,25.70
2006,03,31,07,10,27.70
2006,03,31,07,11,28.00
2006,03,31,07,12,29.50
2006,03,31,07,13,34.70
2006,03,31,07,14,37.00
2006,03,31,07,15,37.00
2006,03,31,07,16,43.10
2006,03,31,07,17,47.70
2006,03,31,07,18,51.90
2006,03,31,07,19,56.70
2006,03,31,07,20,63.00
2006,03,31,07,21,68.00
2006,03,31,07,22,71.80
2006,03,31,07,23,76.20
2006,03,31,07,24,76.70
2006,03,31,07,25,75.00
2006,03,31,07,26,74.00
2006,03,31,07,27,72.40
2006,03,31,07,28,71.90
2006,03,31,07,29,70.50
2006,03,31,07,30,72.70
2006,03,31,07,31,75.00
2006,03,31,07,32,76.70
2006,03,31,07,33,77.00
2006,03,31,07,34,77.50
2006,03,31,07,35,83.20
2006,03,31,07,36,83.70
2006,03,31,07,37,81.00
2006,03,31,07,38,79.00
2006,03,31,07,39,87.70
2006,03,31,07,40,98.40
2006,03,31,07,41,106.50
2006,03,31,07,42,105.00
2006,03,31,07,43,112.80
2006,03,31,07,44,124.70
2006,03,31,07,45,143.40
2006,03,31,07,46,204.20
2006,03,31,07,47,164.40
2006,03,31,07,48,175.50
2006,03,31,07,49,158.70
2006,03,31,07,50,117.10
2006,03,31,07,51,108.00
2006,03,31,07,52,106.80
2006,03,31,07,53,116.50
2006,03,31,07,54,112.10
2006,03,31,07,55,111.00
2006,03,31,07,56,86.90
2006,03,31,07,57,77.00
2006,03,31,07,58,72.80
2006,03,31,07,59,65.70
2006,03,31,08,00,63.00
2006,03,31,08,01,63.00
2006,03,31,08,02,66.00
2006,03,31,08,03,69.90
2006,03,31,08,04,76.90
2006,03,31,08,05,83.10
2006,03,31,08,06,87.10
2006,03,31,08,07,84.80
2006,03,31,08,08,87.10
2006,03,31,08,09,89.70
2006,03,31,08,10,88.00
2006,03,31,08,11,89.60
2006,03,31,08,12,97.50
2006,03,31,08,13,109.80
2006,03,31,08,14,121.40
2006,03,31,08,15,127.80
2006,03,31,08,16,130.00
2006,03,31,08,17,130.00
2006,03,31,08,18,130.00
2006,03,31,08,19,149.60
2006,03,31,08,20,183.80
2006,03,31,08,21,241.70
2006,03,31,08,22,244.00
2006,03,31,08,23,244.00
2006,03,31,08,24,244.00
2006,03,31,08,25,330.70
2006,03,31,08,26,374.00
2006,03,31,08,27,172.00
2006,03,31,08,28,174.90
2006,03,31,08,29,186.00
2006,03,31,08,30,194.40
2006,03,31,08,31,202.00
2006,03,31,08,32,202.00
2006,03,31,08,33,294.00
2006,03,31,08,34,227.00
2006,03,31,08,35,324.30
2006,03,31,08,36,446.10
2006,03,31,08,37,437.20
2006,03,31,08,38,432.00
2006,03,31,08,39,435.00
2006,03,31,08,40,449.40
2006,03,31,08,41,448.90
2006,03,31,08,42,456.40
2006,03,31,08,43,461.70
2006,03,31,08,44,470.80
2006,03,31,08,45,485.00
2006,03,31,08,46,485.60
2006,03,31,08,47,471.90
2006,03,31,08,48,454.00
2006,03,31,08,49,296.50
2006,03,31,08,50,244.00
2006,03,31,08,51,244.00
2006,03,31,08,52,244.00
2006,03,31,08,53,244.00
2006,03,31,08,54,244.00
2006,03,31,08,55,244.00
2006,03,31,08,56,339.00
2006,03,31,08,57,298.80
2006,03,31,08,58,222.80
2006,03,31,08,59,194.30
2006,03,31,09,00,199.10
2006,03,31,09,01,217.20
2006,03,31,09,02,232.60
2006,03,31,09,03,243.80
2006,03,31,09,04,252.40
2006,03,31,09,05,267.00
2006,03,31,09,06,267.00
2006,03,31,09,07,262.90
2006,03,31,09,08,262.00
2006,03,31,09,09,236.70
2006,03,31,09,10,165.00
2006,03,31,09,11,165.00
2006,03,31,09,12,165.00
2006,03,31,09,13,165.00
2006,03,31,09,14,348.00
2006,03,31,09,15,377.70
2006,03,31,09,16,457.90
2006,03,31,09,17,426.20
2006,03,31,09,18,401.00
2006,03,31,09,19,401.00
2006,03,31,09,20,401.00
2006,03,31,09,21,363.90
2006,03,31,09,22,279.00
2006,03,31,09,23,312.50
2006,03,31,09,24,374.70
2006,03,31,09,25,358.00
2006,03,31,09,26,386.10
2006,03,31,09,27,540.40
2006,03,31,09,28,571.50
2006,03,31,09,29,615.30
2006,03,31,09,30,627.10
2006,03,31,09,31,619.30
2006,03,31,09,32,614.20
2006,03,31,09,33,599.50
2006,03,31,09,34,563.00
2006,03,31,09,35,627.40
2006,03,31,09,36,667.50
2006,03,31,09,37,682.80
2006,03,31,09,38,699.30
2006,03,31,09,39,680.00
2006,03,31,09,40,680.00
2006,03,31,09,41,680.00
2006,03,31,09,42,680.00
2006,03,31,09,43,642.90
2006,03,31,09,44,289.50
2006,03,31,09,45,336.00
2006,03,31,09,46,336.00
2006,03,31,09,47,336.00
2006,03,31,09,48,205.50
2006,03,31,09,49,163.00
2006,03,31,09,50,163.00
2006,03,31,09,51,156.50
2006,03,31,09,52,151.80
2006,03,31,09,53,155.70
2006,03,31,09,54,163.50
2006,03,31,09,55,175.60
2006,03,31,09,56,194.00
2006,03,31,09,57,213.20
2006,03,31,09,58,211.70
2006,03,31,09,59,207.60
2006,03,31,10,00,244.70
2006,03,31,10,01,216.00
2006,03,31,10,02,216.00
2006,03,31,10,03,275.10
2006,03,31,10,04,328.10
2006,03,31,10,05,289.70
2006,03,31,10,06,317.60
2006,03,31,10,07,413.00
2006,03,31,10,08,350.00
2006,03,31,10,09,229.60
2006,03,31,10,10,234.30
2006,03,31,10,11,267.40
2006,03,31,10,12,333.40
2006,03,31,10,13,336.00
2006,03,31,10,14,528.30
2006,03,31,10,15,889.00
2006,03,31,10,16,501.00
2006,03,31,10,17,294.80
2006,03,31,10,18,296.80
2006,03,31,10,19,297.00
2006,03,31,10,20,312.30
2006,03,31,10,21,356.70
2006,03,31,10,22,356.00
2006,03,31,10,23,349.60
2006,03,31,10,24,361.40
2006,03,31,10,25,347.00
2006,03,31,10,26,298.10
2006,03,31,10,27,281.60
2006,03,31,10,28,269.90
2006,03,31,10,29,269.00
2006,03,31,10,30,268.80
2006,03,31,10,31,249.30
2006,03,31,10,32,191.50
2006,03,31,10,33,177.00
2006,03,31,10,34,165.70
2006,03,31,10,35,152.90
2006,03,31,10,36,147.50
2006,03,31,10,37,144.00
2006,03,31,10,38,141.90
2006,03,31,10,39,137.90
2006,03,31,10,40,131.90
2006,03,31,10,41,125.70
2006,03,31,10,42,119.30
2006,03,31,10,43,114.40
2006,03,31,10,44,111.00
2006,03,31,10,45,104.80
2006,03,31,10,46,98.50
2006,03,31,10,47,98.00
2006,03,31,10,48,98.00
2006,03,31,10,49,98.70
2006,03,31,10,50,101.00
2006,03,31,10,51,103.20
2006,03,31,10,52,102.50
2006,03,31,10,53,100.10
2006,03,31,10,54,97.80
2006,03,31,10,55,95.70
2006,03,31,10,56,91.50
2006,03,31,10,57,88.70
2006,03,31,10,58,86.40
2006,03,31,10,59,84.20
2006,03,31,11,00,84.00
2006,03,31,11,01,85.50
2006,03,31,11,02,89.10
2006,03,31,11,03,90.70
2006,03,31,11,04,91.00
2006,03,31,11,05,95.10
2006,03,31,11,06,98.00
2006,03,31,11,07,100.50
2006,03,31,11,08,106.10
2006,03,31,11,09,108.30
2006,03,31,11,10,112.30
2006,03,31,11,11,118.20
2006,03,31,11,12,121.00
2006,03,31,11,13,127.10
2006,03,31,11,14,142.10
2006,03,31,11,15,154.30
2006,03,31,11,16,167.00
2006,03,31,11,17,183.10
2006,03,31,11,18,201.20
2006,03,31,11,19,219.30
2006,03,31,11,20,234.90
2006,03,31,11,21,244.20
2006,03,31,11,22,252.10
2006,03,31,11,23,261.50
2006,03,31,11,24,271.70
2006,03,31,11,25,282.90
2006,03,31,11,26,292.40
2006,03,31,11,27,299.90
2006,03,31,11,28,367.20
2006,03,31,11,29,346.00
2006,03,31,11,30,346.00
2006,03,31,11,31,314.00
2006,03,31,11,32,272.90
2006,03,31,11,33,265.20
2006,03,31,11,34,258.70
2006,03,31,11,35,263.70
2006,03,31,11,36,273.30
2006,03,31,11,37,278.50
2006,03,31,11,38,284.80
2006,03,31,11,39,292.50
2006,03,31,11,40,299.20
2006,03,31,11,41,306.40
2006,03,31,11,42,308.00
2006,03,31,11,43,308.50
2006,03,31,11,44,309.00
2006,03,31,11,45,306.70
2006,03,31,11,46,295.00
2006,03,31,11,47,305.80
2006,03,31,11,48,321.30
2006,03,31,11,49,264.20
2006,03,31,11,50,257.00
2006,03,31,11,51,313.10
2006,03,31,11,52,343.90
2006,03,31,11,53,497.00
2006,03,31,11,54,632.00
2006,03,31,11,55,808.00
2006,03,31,11,56,752.80
2006,03,31,11,57,800.50
2006,03,31,11,58,814.00
2006,03,31,11,59,820.00
2006,03,31,12,00,834.50
2006,03,31,12,01,829.30
2006,03,31,12,02,836.90
2006,03,31,12,03,851.20
2006,03,31,12,04,864.50
2006,03,31,12,05,888.00
2006,03,31,12,06,912.70
2006,03,31,12,07,923.00
2006,03,31,12,08,923.00
2006,03,31,12,09,938.00
2006,03,31,12,10,902.30
2006,03,31,12,11,866.70
2006,03,31,12,12,888.50
2006,03,31,12,13,906.70
2006,03,31,12,14,882.00
2006,03,31,12,15,868.30
2006,03,31,12,16,925.00
2006,03,31,12,17,767.10
2006,03,31,12,18,453.50
2006,03,31,12,19,436.00
2006,03,31,12,20,436.00
2006,03,31,12,21,328.20
2006,03,31,12,22,281.50
2006,03,31,12,23,289.10
2006,03,31,12,24,311.00
2006,03,31,12,25,311.00
2006,03,31,12,26,596.00
2006,03,31,12,27,647.80
2006,03,31,12,28,422.20
2006,03,31,12,29,413.80
2006,03,31,12,30,421.90
2006,03,31,12,31,421.30
2006,03,31,12,32,422.00
2006,03,31,12,33,422.00
2006,03,31,12,34,517.00
2006,03,31,12,35,831.80
2006,03,31,12,36,812.50
2006,03,31,12,37,788.20
2006,03,31,12,38,775.80
2006,03,31,12,39,785.20
2006,03,31,12,40,793.00
2006,03,31,12,41,793.00
2006,03,31,12,42,787.80
2006,03,31,12,43,782.50
2006,03,31,12,44,783.70
2006,03,31,12,45,822.70
2006,03,31,12,46,856.00
2006,03,31,12,47,676.30
2006,03,31,12,48,464.00
2006,03,31,12,49,464.00
2006,03,31,12,50,328.10
2006,03,31,12,51,322.20
2006,03,31,12,52,350.00
2006,03,31,12,53,380.90
2006,03,31,12,54,409.60
2006,03,31,12,55,424.70
2006,03,31,12,56,430.90
2006,03,31,12,57,433.20
2006,03,31,12,58,438.30
2006,03,31,12,59,438.50
2006,03,31,13,00,438.60
2006,03,31,13,01,465.60
2006,03,31,13,02,473.00
2006,03,31,13,03,611.30
2006,03,31,13,04,1114.60
2006,03,31,13,05,1112.50
2006,03,31,13,06,1100.00
2006,03,31,13,07,1006.90
2006,03,31,13,08,924.00
2006,03,31,13,09,898.80
2006,03,31,13,10,857.00
2006,03,31,13,11,821.00
2006,03,31,13,12,821.00
2006,03,31,13,13,414.60
2006,03,31,13,14,327.50
2006,03,31,13,15,373.50
2006,03,31,13,16,441.20
2006,03,31,13,17,457.00
2006,03,31,13,18,457.00
2006,03,31,13,19,668.30
2006,03,31,13,20,762.30
2006,03,31,13,21,784.50
2006,03,31,13,22,783.50
2006,03,31,13,23,775.90
2006,03,31,13,24,767.90
2006,03,31,13,25,759.90
2006,03,31,13,26,764.30
2006,03,31,13,27,761.00
2006,03,31,13,28,761.90
2006,03,31,13,29,764.20
2006,03,31,13,30,765.70
2006,03,31,13,31,765.10
2006,03,31,13,32,765.50
2006,03,31,13,33,762.30
2006,03,31,13,34,759.60
2006,03,31,13,35,754.30
2006,03,31,13,36,751.20
2006,03,31,13,37,749.20
2006,03,31,13,38,748.60
2006,03,31,13,39,748.40
2006,03,31,13,40,750.00
2006,03,31,13,41,749.00
2006,03,31,13,42,747.40
2006,03,31,13,43,743.80
2006,03,31,13,44,740.00
2006,03,31,13,45,738.90
2006,03,31,13,46,737.50
2006,03,31,13,47,740.70
2006,03,31,13,48,737.90
2006,03,31,13,49,733.20
2006,03,31,13,50,742.80
2006,03,31,13,51,756.70
2006,03,31,13,52,735.60
2006,03,31,13,53,723.00
2006,03,31,13,54,724.10
2006,03,31,13,55,724.10
2006,03,31,13,56,723.20
2006,03,31,13,57,720.20
2006,03,31,13,58,713.90
2006,03,31,13,59,703.00
2006,03,31,14,00,681.70
2006,03,31,14,01,679.00
2006,03,31,14,02,684.50
2006,03,31,14,03,699.30
2006,03,31,14,04,674.40
2006,03,31,14,05,678.90
2006,03,31,14,06,707.00
2006,03,31,14,07,706.70
2006,03,31,14,08,701.00
2006,03,31,14,09,705.10
2006,03,31,14,10,705.70
2006,03,31,14,11,703.00
2006,03,31,14,12,452.80
2006,03,31,14,13,469.90
2006,03,31,14,14,723.30
2006,03,31,14,15,732.80
2006,03,31,14,16,734.90
2006,03,31,14,17,722.50
2006,03,31,14,18,706.40
2006,03,31,14,19,699.80
2006,03,31,14,20,661.00
2006,03,31,14,21,661.00
2006,03,31,14,22,341.00
2006,03,31,14,23,142.90
2006,03,31,14,24,148.90
2006,03,31,14,25,186.00
2006,03,31,14,26,186.00
2006,03,31,14,27,186.00
2006,03,31,14,28,450.80
2006,03,31,14,29,545.30
2006,03,31,14,30,533.00
2006,03,31,14,31,556.80
2006,03,31,14,32,633.90
2006,03,31,14,33,643.00
2006,03,31,14,34,653.70
2006,03,31,14,35,651.60
2006,03,31,14,36,645.00
2006,03,31,14,37,614.20
2006,03,31,14,38,586.60
2006,03,31,14,39,561.10
2006,03,31,14,40,591.00
2006,03,31,14,41,562.20
2006,03,31,14,42,587.90
2006,03,31,14,43,595.50
2006,03,31,14,44,596.00
2006,03,31,14,45,592.00
2006,03,31,14,46,557.30
2006,03,31,14,47,504.70
2006,03,31,14,48,448.70
2006,03,31,14,49,472.80
2006,03,31,14,50,511.20
2006,03,31,14,51,540.00
2006,03,31,14,52,535.20
2006,03,31,14,53,531.80
2006,03,31,14,54,490.20
2006,03,31,14,55,495.40
2006,03,31,14,56,478.80
2006,03,31,14,57,462.00
2006,03,31,14,58,519.00
2006,03,31,14,59,571.40
2006,03,31,15,00,602.30
2006,03,31,15,01,597.30
2006,03,31,15,02,605.00
2006,03,31,15,03,576.80
2006,03,31,15,04,580.00
2006,03,31,15,05,534.60
2006,03,31,15,06,514.30
2006,03,31,15,07,487.20
2006,03,31,15,08,445.90
2006,03,31,15,09,432.00
2006,03,31,15,10,432.00
2006,03,31,15,11,432.00
2006,03,31,15,12,459.80
2006,03,31,15,13,570.40
2006,03,31,15,14,616.10
2006,03,31,15,15,609.70
2006,03,31,15,16,591.80
2006,03,31,15,17,600.50
2006,03,31,15,18,590.60
2006,03,31,15,19,556.80
2006,03,31,15,20,512.40
2006,03,31,15,21,504.80
2006,03,31,15,22,557.30
2006,03,31,15,23,590.40
2006,03,31,15,24,578.80
2006,03,31,15,25,546.40
2006,03,31,15,26,512.30
2006,03,31,15,27,499.00
2006,03,31,15,28,494.90
2006,03,31,15,29,393.00
2006,03,31,15,30,355.00
2006,03,31,15,31,282.60
2006,03,31,15,32,202.50
2006,03,31,15,33,203.00
2006,03,31,15,34,197.80
2006,03,31,15,35,203.30
2006,03,31,15,36,209.00
2006,03,31,15,37,249.30
2006,03,31,15,38,317.60
2006,03,31,15,39,284.60
2006,03,31,15,40,274.00
2006,03,31,15,41,338.00
2006,03,31,15,42,342.70
2006,03,31,15,43,352.00
2006,03,31,15,44,442.40
2006,03,31,15,45,418.10
2006,03,31,15,46,416.50
2006,03,31,15,47,432.00
2006,03,31,15,48,365.60
2006,03,31,15,49,248.50
2006,03,31,15,50,252.10
2006,03,31,15,51,246.70
2006,03,31,15,52,208.80
2006,03,31,15,53,207.00
2006,03,31,15,54,282.40
2006,03,31,15,55,425.20
2006,03,31,15,56,493.00
2006,03,31,15,57,544.00
2006,03,31,15,58,548.70
2006,03,31,15,59,534.80
2006,03,31,16,00,504.20
2006,03,31,16,01,449.80
2006,03,31,16,02,357.00
2006,03,31,16,03,355.10
2006,03,31,16,04,276.00
2006,03,31,16,05,230.50
2006,03,31,16,06,239.20
2006,03,31,16,07,306.40
2006,03,31,16,08,319.50
2006,03,31,16,09,300.40
2006,03,31,16,10,297.30
2006,03,31,16,11,301.10
2006,03,31,16,12,300.30
2006,03,31,16,13,294.60
2006,03,31,16,14,272.80
2006,03,31,16,15,272.90
2006,03,31,16,16,271.40
2006,03,31,16,17,261.30
2006,03,31,16,18,268.00
2006,03,31,16,19,278.20
2006,03,31,16,20,275.20
2006,03,31,16,21,238.10
2006,03,31,16,22,189.70
2006,03,31,16,23,185.90
2006,03,31,16,24,215.50
2006,03,31,16,25,212.30
2006,03,31,16,26,193.90
2006,03,31,16,27,159.70
2006,03,31,16,28,165.80
2006,03,31,16,29,139.40
2006,03,31,16,30,119.20
2006,03,31,16,31,113.30
2006,03,31,16,32,111.40
2006,03,31,16,33,111.30
2006,03,31,16,34,115.00
2006,03,31,16,35,120.00
2006,03,31,16,36,125.60
2006,03,31,16,37,132.00
2006,03,31,16,38,134.00
2006,03,31,16,39,146.70
2006,03,31,16,40,154.50
2006,03,31,16,41,153.00
2006,03,31,16,42,154.10
2006,03,31,16,43,157.10
2006,03,31,16,44,158.00
2006,03,31,16,45,171.80
2006,03,31,16,46,183.10
2006,03,31,16,47,196.90
2006,03,31,16,48,202.00
2006,03,31,16,49,202.00
2006,03,31,16,50,212.30
2006,03,31,16,51,228.20
2006,03,31,16,52,237.70
2006,03,31,16,53,250.80
2006,03,31,16,54,243.60
2006,03,31,16,55,236.00
2006,03,31,16,56,210.50
2006,03,31,16,57,228.10
2006,03,31,16,58,245.70
2006,03,31,16,59,256.20
2006,03,31,17,00,260.80
2006,03,31,17,01,268.60
2006,03,31,17,02,277.30
2006,03,31,17,03,273.70
2006,03,31,17,04,259.10
2006,03,31,17,05,239.40
2006,03,31,17,06,219.80
2006,03,31,17,07,214.00
2006,03,31,17,08,182.50
2006,03,31,17,09,174.00
2006,03,31,17,10,143.50
2006,03,31,17,11,143.90
2006,03,31,17,12,151.70